Location: Łódź
(51.7951°N, 19.4477°E)
Time: 07:44:42
(UTC+01:00)

N. Korean satellite - Visible Passes

Search period start: 23 March 2019 00:00
Search period end: 02 April 2019 01:00
Orbit: 456 x 510 km, 97.2° (Epoch: 22 March)

Date Brightness Start Highest point End Pass type
(mag) Time Alt. Az. Time Alt. Az. Time Alt. Az.
24 Mar 10.1 04:50:06 10° ENE 04:51:51 13° E 04:53:37 10° ESE visible
28 Mar 10.3 04:44:33 10° ENE 04:45:54 12° E 04:47:14 10° ESE visible
01 Apr 10.6 05:39:15 10° ENE 05:39:53 10° E 05:40:31 10° E visible
